CEB995 RPLL-RPMR

Flight info

Callsign CEB995
Flight time 1h 48m
Altitude 37000
Route VERDE2P VERDE A461 SAJ W3 IOO B472 COT W19 MELBY MELBY3R
Aircraft A339/H-SADE1E2E3GHIJ3J5M1P2RWXY/LB2D1

Departure

Time 2026-04-17 07:15
Airport Ninoy Aquino International Airport (RPLL)

Arrival

Time 2026-04-17 09:03
Airport General Santos International Airport (RPMR)
Time Latitude Longitude Altitude Speed Heading
2026-04-17 06:54 14.51655 121.01511 90 ft 0 kts 46°
2026-04-17 07:03 14.51649 121.01505 89 ft 2 kts 42°
2026-04-17 07:03 14.51641 121.01498 89 ft 2 kts 41°
2026-04-17 07:04 14.51630 121.01488 89 ft 2 kts 44°
2026-04-17 07:04 14.51619 121.01477 89 ft 2 kts 44°
2026-04-17 07:04 14.51608 121.01466 90 ft 2 kts 60°
2026-04-17 07:04 14.51604 121.01451 90 ft 2 kts 91°
2026-04-17 07:05 14.51607 121.01436 90 ft 2 kts 118°
2026-04-17 07:05 14.51612 121.01427 90 ft 0 kts 135°
2026-04-17 07:05 14.51601 121.01440 90 ft 5 kts 132°
2026-04-17 07:05 14.51574 121.01468 90 ft 3 kts 135°
2026-04-17 07:06 14.51569 121.01473 90 ft 0 kts 135°
2026-04-17 07:07 14.51563 121.01479 90 ft 3 kts 134°
2026-04-17 07:08 14.51530 121.01514 90 ft 10 kts 136°
2026-04-17 07:08 14.51472 121.01574 90 ft 11 kts 134°
2026-04-17 07:08 14.51415 121.01633 90 ft 11 kts 136°
2026-04-17 07:08 14.51357 121.01689 90 ft 11 kts 135°
2026-04-17 07:09 14.51304 121.01747 90 ft 10 kts 132°
2026-04-17 07:09 14.51250 121.01804 90 ft 11 kts 134°
2026-04-17 07:09 14.51194 121.01862 90 ft 11 kts 134°
2026-04-17 07:09 14.51118 121.01941 90 ft 19 kts 135°
2026-04-17 07:10 14.51067 121.02020 90 ft 11 kts 85°
2026-04-17 07:10 14.51107 121.02104 90 ft 13 kts 59°
2026-04-17 07:10 14.51155 121.02190 90 ft 14 kts 60°
2026-04-17 07:10 14.51204 121.02277 90 ft 13 kts 59°
2026-04-17 07:11 14.51250 121.02363 90 ft 14 kts 61°
2026-04-17 07:11 14.51299 121.02454 90 ft 14 kts 61°
2026-04-17 07:11 14.51351 121.02550 90 ft 15 kts 60°
2026-04-17 07:11 14.51408 121.02651 90 ft 17 kts 59°
2026-04-17 07:12 14.51472 121.02760 90 ft 14 kts 60°
2026-04-17 07:12 14.51482 121.02838 90 ft 8 kts 133°
2026-04-17 07:12 14.51475 121.02844 90 ft 0 kts 144°
2026-04-17 07:13 14.51474 121.02845 90 ft 0 kts 144°
2026-04-17 07:13 14.51454 121.02859 90 ft 6 kts 147°
2026-04-17 07:13 14.51409 121.02878 90 ft 7 kts 174°
2026-04-17 07:14 14.51361 121.02851 90 ft 8 kts 234°
2026-04-17 07:14 14.51352 121.02837 90 ft 1 kts 239°
2026-04-17 07:14 14.51327 121.02793 90 ft 26 kts 238°
2026-04-17 07:14 14.51123 121.02420 90 ft 92 kts 240°
2026-04-17 07:15 14.50703 121.01667 90 ft 146 kts 240°
2026-04-17 07:15 14.50123 121.00621 265 ft 176 kts 237°
2026-04-17 07:15 14.49518 120.99523 778 ft 179 kts 236°
2026-04-17 07:15 14.48929 120.98455 1541 ft 168 kts 240°
2026-04-17 07:16 14.48372 120.97448 2135 ft 160 kts 240°
2026-04-17 07:16 14.47807 120.96415 2370 ft 172 kts 240°
2026-04-17 07:16 14.47195 120.95293 2611 ft 185 kts 240°
2026-04-17 07:16 14.46527 120.94070 2865 ft 200 kts 241°
2026-04-17 07:17 14.45818 120.92774 3131 ft 215 kts 240°
2026-04-17 07:17 14.45051 120.91378 3423 ft 232 kts 240°
2026-04-17 07:17 14.43109 120.88418 4064 ft 265 kts 214°
2026-04-17 07:18 14.41360 120.87817 4574 ft 273 kts 179°
2026-04-17 07:18 14.39458 120.88094 5271 ft 275 kts 166°
2026-04-17 07:18 14.37605 120.88553 5946 ft 279 kts 165°
2026-04-17 07:18 14.35656 120.89013 6572 ft 284 kts 166°
2026-04-17 07:19 14.33709 120.89424 6918 ft 286 kts 167°
2026-04-17 07:19 14.31724 120.89803 7132 ft 289 kts 168°
2026-04-17 07:19 14.29724 120.90160 7702 ft 294 kts 168°
2026-04-17 07:19 14.27708 120.90505 8498 ft 294 kts 168°
2026-04-17 07:20 14.25664 120.90847 9189 ft 298 kts 168°
2026-04-17 07:20 14.23590 120.91192 9846 ft 302 kts 168°
2026-04-17 07:20 14.21488 120.91541 10471 ft 307 kts 168°
2026-04-17 07:20 14.19338 120.91898 10830 ft 322 kts 168°
2026-04-17 07:21 14.17081 120.92271 11349 ft 330 kts 169°
2026-04-17 07:21 14.14791 120.92647 11987 ft 333 kts 169°
2026-04-17 07:21 14.12462 120.93029 12602 ft 337 kts 169°
2026-04-17 07:21 14.10118 120.93414 13199 ft 341 kts 169°
2026-04-17 07:22 14.07768 120.93799 13791 ft 345 kts 169°
2026-04-17 07:22 14.05383 120.94190 14366 ft 349 kts 169°
2026-04-17 07:22 14.02951 120.94588 14974 ft 352 kts 169°
2026-04-17 07:22 14.00532 120.94981 15549 ft 355 kts 169°
2026-04-17 07:23 13.98059 120.95384 16142 ft 359 kts 169°
2026-04-17 07:23 13.95576 120.95789 16731 ft 362 kts 169°
2026-04-17 07:23 13.93087 120.96195 17292 ft 366 kts 169°
2026-04-17 07:23 13.90538 120.96611 17869 ft 369 kts 169°
2026-04-17 07:24 13.87966 120.97031 18451 ft 372 kts 169°
2026-04-17 07:24 13.85387 120.97453 19030 ft 374 kts 169°
2026-04-17 07:24 13.82805 120.97875 19595 ft 377 kts 169°
2026-04-17 07:24 13.80231 120.98296 20155 ft 379 kts 169°
2026-04-17 07:25 13.77586 120.98728 20707 ft 381 kts 169°
2026-04-17 07:25 13.74984 120.99154 21238 ft 383 kts 169°
2026-04-17 07:25 13.72346 120.99584 21764 ft 385 kts 169°
2026-04-17 07:25 13.69682 121.00021 22282 ft 387 kts 169°
2026-04-17 07:26 13.66997 121.00459 22794 ft 389 kts 169°
2026-04-17 07:26 13.64336 121.00895 23284 ft 391 kts 169°
2026-04-17 07:26 13.61628 121.01338 23772 ft 393 kts 169°
2026-04-17 07:26 13.58909 121.01782 24250 ft 395 kts 169°
2026-04-17 07:27 13.56161 121.02231 24724 ft 397 kts 170°
2026-04-17 07:27 13.53438 121.02673 25182 ft 399 kts 171°
2026-04-17 07:27 13.50667 121.03023 25627 ft 402 kts 174°
2026-04-17 07:27 13.47836 121.03200 26070 ft 404 kts 178°
2026-04-17 07:28 13.45017 121.03243 26509 ft 406 kts 178°
2026-04-17 07:28 13.42202 121.03268 26941 ft 408 kts 179°
2026-04-17 07:28 13.39319 121.03291 27373 ft 410 kts 179°
2026-04-17 07:28 13.36479 121.03316 27792 ft 411 kts 179°
2026-04-17 07:29 13.33577 121.03345 28208 ft 413 kts 179°
2026-04-17 07:29 13.30685 121.03373 28623 ft 415 kts 179°
2026-04-17 07:29 13.27787 121.03403 29032 ft 417 kts 179°
2026-04-17 07:29 13.24867 121.03432 29405 ft 419 kts 179°
2026-04-17 07:30 13.21926 121.03460 29757 ft 422 kts 179°
2026-04-17 07:30 13.18962 121.03487 30101 ft 425 kts 179°
2026-04-17 07:30 13.15950 121.03515 30425 ft 429 kts 179°
2026-04-17 07:30 13.12962 121.03544 30734 ft 432 kts 179°
2026-04-17 07:31 13.09878 121.03574 31057 ft 436 kts 179°
2026-04-17 07:31 13.06819 121.03605 31374 ft 439 kts 179°
2026-04-17 07:31 13.03763 121.03635 31689 ft 442 kts 180°
2026-04-17 07:31 13.00655 121.03667 32005 ft 444 kts 180°
2026-04-17 07:32 12.97541 121.03698 32318 ft 447 kts 180°
2026-04-17 07:32 12.94410 121.03728 32610 ft 450 kts 180°
2026-04-17 07:32 12.91247 121.03758 32923 ft 454 kts 180°
2026-04-17 07:32 12.88046 121.03788 33259 ft 456 kts 180°
2026-04-17 07:33 12.84815 121.03819 33584 ft 459 kts 180°
2026-04-17 07:33 12.81590 121.03851 33926 ft 461 kts 179°
2026-04-17 07:33 12.78383 121.03883 34260 ft 463 kts 179°
2026-04-17 07:33 12.75123 121.03915 34588 ft 465 kts 179°
2026-04-17 07:34 12.71885 121.03947 34991 ft 465 kts 179°
2026-04-17 07:34 12.68629 121.03979 35388 ft 465 kts 179°
2026-04-17 07:34 12.65350 121.04012 35783 ft 464 kts 179°
2026-04-17 07:34 12.62090 121.04046 36101 ft 465 kts 179°
2026-04-17 07:35 12.58856 121.04079 36385 ft 467 kts 179°
2026-04-17 07:35 12.55597 121.04112 36665 ft 468 kts 179°
2026-04-17 07:35 12.52302 121.04146 36899 ft 470 kts 179°
2026-04-17 07:35 12.49008 121.04179 36908 ft 471 kts 179°
2026-04-17 07:36 12.42414 121.04579 36903 ft 471 kts 170°
2026-04-17 07:36 12.36130 121.06444 36904 ft 471 kts 156°
2026-04-17 07:37 12.30405 121.09808 36905 ft 473 kts 142°
2026-04-17 07:37 12.25475 121.14262 36907 ft 474 kts 136°
2026-04-17 07:38 12.20673 121.18909 36901 ft 475 kts 135°
2026-04-17 07:38 12.15899 121.23504 36894 ft 471 kts 136°
2026-04-17 07:39 12.11107 121.28095 36886 ft 471 kts 136°
2026-04-17 07:39 12.06335 121.32653 36876 ft 471 kts 136°
2026-04-17 07:40 12.01542 121.37231 36868 ft 472 kts 136°
2026-04-17 07:40 11.96745 121.41809 36863 ft 470 kts 136°
2026-04-17 07:41 11.91981 121.46354 36861 ft 469 kts 136°
2026-04-17 07:41 11.87121 121.50987 36861 ft 469 kts 136°
2026-04-17 07:42 11.82374 121.55512 36861 ft 469 kts 136°
2026-04-17 07:42 11.77592 121.60069 36859 ft 468 kts 136°
2026-04-17 07:43 11.72826 121.64610 36860 ft 468 kts 135°
2026-04-17 07:43 11.68055 121.69154 36861 ft 468 kts 136°
2026-04-17 07:44 11.63259 121.73711 36860 ft 468 kts 136°
2026-04-17 07:44 11.58493 121.78235 36860 ft 468 kts 136°
2026-04-17 07:45 11.53717 121.82776 36860 ft 468 kts 136°
2026-04-17 07:45 11.48943 121.87309 36860 ft 467 kts 136°
2026-04-17 07:46 11.44182 121.91818 36859 ft 467 kts 136°
2026-04-17 07:46 11.39391 121.96355 36860 ft 467 kts 136°
2026-04-17 07:47 11.34653 122.00846 36861 ft 467 kts 136°
2026-04-17 07:47 11.29878 122.05372 36871 ft 467 kts 136°
2026-04-17 07:48 11.25091 122.09910 36884 ft 466 kts 136°
2026-04-17 07:48 11.20344 122.14407 36904 ft 466 kts 136°
2026-04-17 07:49 11.15564 122.18935 36924 ft 470 kts 136°
2026-04-17 07:49 11.10745 122.23500 36946 ft 470 kts 136°
2026-04-17 07:50 11.05939 122.28048 36963 ft 470 kts 136°
2026-04-17 07:50 11.01117 122.32594 36953 ft 468 kts 136°
2026-04-17 07:51 10.96359 122.37086 36938 ft 467 kts 136°
2026-04-17 07:51 10.91575 122.41605 36908 ft 468 kts 136°
2026-04-17 07:52 10.86600 122.45998 36879 ft 468 kts 141°
2026-04-17 07:52 10.82122 122.49233 36860 ft 469 kts 146°
2026-04-17 07:53 10.75443 122.53014 36854 ft 469 kts 154°
2026-04-17 07:53 10.69554 122.55806 36854 ft 466 kts 154°
2026-04-17 07:54 10.63646 122.58593 36861 ft 464 kts 154°
2026-04-17 07:54 10.57780 122.61367 36862 ft 463 kts 154°
2026-04-17 07:55 10.51890 122.64153 36865 ft 463 kts 154°
2026-04-17 07:55 10.46031 122.66926 36868 ft 466 kts 154°
2026-04-17 07:56 10.40126 122.69718 36864 ft 467 kts 154°
2026-04-17 07:56 10.34185 122.72520 36865 ft 464 kts 154°
2026-04-17 07:57 10.28346 122.75271 36869 ft 462 kts 154°
2026-04-17 07:57 10.22471 122.78045 36873 ft 462 kts 154°
2026-04-17 07:58 10.16590 122.80820 36881 ft 462 kts 154°
2026-04-17 07:58 10.10743 122.83568 36896 ft 461 kts 154°
2026-04-17 07:59 10.04867 122.86331 36910 ft 463 kts 154°
2026-04-17 07:59 9.98980 122.89104 36931 ft 463 kts 154°
2026-04-17 08:00 9.93131 122.91859 36948 ft 461 kts 154°
2026-04-17 08:00 9.88291 122.94139 36961 ft 460 kts 154°
2026-04-17 08:01 9.81528 122.97324 36972 ft 460 kts 154°
2026-04-17 08:01 9.75672 123.00073 36980 ft 461 kts 154°
2026-04-17 08:02 9.69835 123.02810 36968 ft 460 kts 154°
2026-04-17 08:02 9.64995 123.05081 36945 ft 460 kts 154°
2026-04-17 08:03 9.59145 123.07828 36924 ft 460 kts 154°
2026-04-17 08:03 9.52356 123.11016 36902 ft 460 kts 154°
2026-04-17 08:04 9.47495 123.13297 36890 ft 459 kts 154°
2026-04-17 08:04 9.41657 123.16038 36884 ft 459 kts 154°
2026-04-17 08:05 9.35880 123.18748 36877 ft 459 kts 154°
2026-04-17 08:05 9.29054 123.21950 36876 ft 459 kts 154°
2026-04-17 08:06 9.23213 123.24691 36872 ft 459 kts 154°
2026-04-17 08:06 9.18387 123.26955 36869 ft 459 kts 154°
2026-04-17 08:07 9.12581 123.29676 36861 ft 459 kts 154°
2026-04-17 08:07 9.06774 123.32388 36854 ft 459 kts 154°
2026-04-17 08:08 9.00918 123.35122 36847 ft 459 kts 154°
2026-04-17 08:08 8.94164 123.38281 36840 ft 458 kts 154°
2026-04-17 08:09 8.89325 123.40544 36845 ft 458 kts 154°
2026-04-17 08:09 8.83580 123.43230 36843 ft 458 kts 154°
2026-04-17 08:10 8.77745 123.45957 36845 ft 458 kts 154°
2026-04-17 08:10 8.70957 123.49129 36850 ft 458 kts 154°
2026-04-17 08:11 8.65151 123.51842 36859 ft 457 kts 154°
2026-04-17 08:11 8.60316 123.54102 36864 ft 457 kts 154°
2026-04-17 08:12 8.54509 123.56813 36874 ft 457 kts 154°
2026-04-17 08:12 8.47755 123.59965 36877 ft 457 kts 154°
2026-04-17 08:13 8.41964 123.62666 36891 ft 456 kts 154°
2026-04-17 08:14 8.33279 123.66717 36591 ft 459 kts 154°
2026-04-17 08:14 8.31303 123.67637 36081 ft 462 kts 154°
2026-04-17 08:14 8.28525 123.68931 35369 ft 464 kts 154°
2026-04-17 08:14 8.25553 123.70315 34641 ft 465 kts 154°
2026-04-17 08:15 8.22613 123.71686 34005 ft 464 kts 154°
2026-04-17 08:15 8.19646 123.73068 33543 ft 460 kts 154°
2026-04-17 08:15 8.16759 123.74411 33104 ft 456 kts 153°
2026-04-17 08:15 8.13884 123.75750 32690 ft 451 kts 153°
2026-04-17 08:16 8.11066 123.77064 32312 ft 447 kts 154°
2026-04-17 08:16 8.08217 123.78393 31925 ft 443 kts 154°
2026-04-17 08:16 8.05416 123.79699 31543 ft 439 kts 154°
2026-04-17 08:16 8.02634 123.80994 31164 ft 435 kts 154°
2026-04-17 08:17 7.99888 123.82273 30789 ft 432 kts 154°
2026-04-17 08:17 7.97174 123.83536 30420 ft 428 kts 154°
2026-04-17 08:17 7.94463 123.84800 30073 ft 424 kts 154°
2026-04-17 08:17 7.90892 123.86461 29604 ft 419 kts 154°
2026-04-17 08:18 7.89136 123.87279 29366 ft 416 kts 154°
2026-04-17 08:18 7.86498 123.88506 29017 ft 413 kts 154°
2026-04-17 08:18 7.83039 123.90114 28570 ft 408 kts 154°
2026-04-17 08:18 7.80505 123.91292 28257 ft 404 kts 154°
2026-04-17 08:19 7.78799 123.92085 28032 ft 402 kts 154°
2026-04-17 08:19 7.76239 123.93276 27670 ft 400 kts 154°
2026-04-17 08:19 7.73713 123.94450 27285 ft 399 kts 154°
2026-04-17 08:19 7.71180 123.95628 26898 ft 398 kts 154°
2026-04-17 08:20 7.68671 123.96793 26505 ft 397 kts 154°
2026-04-17 08:20 7.66134 123.97972 26100 ft 397 kts 154°
2026-04-17 08:20 7.63651 123.99126 25708 ft 396 kts 154°
2026-04-17 08:20 7.61133 124.00296 25321 ft 395 kts 154°
2026-04-17 08:21 7.58623 124.01461 24925 ft 394 kts 154°
2026-04-17 08:21 7.56126 124.02621 24528 ft 394 kts 154°
2026-04-17 08:21 7.53627 124.03782 24129 ft 393 kts 154°
2026-04-17 08:21 7.51138 124.04938 23733 ft 392 kts 154°
2026-04-17 08:22 7.48623 124.06105 23351 ft 391 kts 154°
2026-04-17 08:22 7.46118 124.07269 22968 ft 390 kts 155°
2026-04-17 08:22 7.42841 124.08791 22456 ft 389 kts 155°
2026-04-17 08:22 7.41181 124.09562 22189 ft 389 kts 155°
2026-04-17 08:23 7.37924 124.11073 21692 ft 387 kts 155°
2026-04-17 08:23 7.36277 124.11836 21455 ft 386 kts 155°
2026-04-17 08:23 7.33837 124.12969 21105 ft 384 kts 155°
2026-04-17 08:23 7.31398 124.14101 20763 ft 382 kts 155°
2026-04-17 08:24 7.28945 124.15240 20421 ft 380 kts 155°
2026-04-17 08:24 7.26567 124.16344 20070 ft 379 kts 155°
2026-04-17 08:24 7.24160 124.17460 19737 ft 376 kts 155°
2026-04-17 08:24 7.21799 124.18555 19407 ft 374 kts 155°
2026-04-17 08:25 7.19424 124.19656 19080 ft 372 kts 154°
2026-04-17 08:25 7.17120 124.20873 18752 ft 370 kts 148°
2026-04-17 08:25 7.14987 124.22303 18436 ft 367 kts 142°
2026-04-17 08:25 7.12980 124.23886 18122 ft 364 kts 140°
2026-04-17 08:26 7.12824 124.24013 18097 ft 364 kts 140°
2026-04-17 08:26 7.12638 124.24164 18067 ft 364 kts 140°
2026-04-17 08:26 7.10661 124.25776 17750 ft 365 kts 140°
2026-04-17 08:26 7.08020 124.27932 17333 ft 363 kts 140°
2026-04-17 08:27 7.06717 124.28995 17127 ft 361 kts 140°
2026-04-17 08:27 7.04753 124.30592 16819 ft 359 kts 140°
2026-04-17 08:27 7.02805 124.32175 16507 ft 357 kts 140°
2026-04-17 08:27 7.00868 124.33747 16175 ft 355 kts 140°
2026-04-17 08:28 6.98948 124.35305 15844 ft 353 kts 140°
2026-04-17 08:28 6.97012 124.36875 15506 ft 352 kts 141°
2026-04-17 08:28 6.95100 124.38425 15161 ft 350 kts 141°
2026-04-17 08:28 6.93188 124.39974 14822 ft 348 kts 141°
2026-04-17 08:29 6.91281 124.41518 14492 ft 346 kts 141°
2026-04-17 08:29 6.89417 124.43028 14177 ft 344 kts 141°
2026-04-17 08:29 6.87543 124.44545 13859 ft 341 kts 141°
2026-04-17 08:29 6.85694 124.46043 13535 ft 339 kts 141°
2026-04-17 08:30 6.83252 124.48021 13119 ft 336 kts 141°
2026-04-17 08:30 6.82031 124.49010 12903 ft 335 kts 142°
2026-04-17 08:30 6.80215 124.50475 12578 ft 333 kts 141°
2026-04-17 08:30 6.78410 124.51930 12257 ft 331 kts 141°
2026-04-17 08:31 6.76602 124.53391 11931 ft 330 kts 141°
2026-04-17 08:31 6.74808 124.54842 11606 ft 328 kts 141°
2026-04-17 08:31 6.73023 124.56287 11281 ft 327 kts 141°
2026-04-17 08:31 6.71245 124.57725 10956 ft 326 kts 141°
2026-04-17 08:32 6.69497 124.59140 10645 ft 325 kts 141°
2026-04-17 08:32 6.67721 124.60576 10328 ft 324 kts 140°
2026-04-17 08:32 6.65925 124.62007 10009 ft 322 kts 142°
2026-04-17 08:32 6.64160 124.63347 9873 ft 314 kts 142°
2026-04-17 08:33 6.62432 124.64647 9852 ft 302 kts 142°
2026-04-17 08:33 6.60709 124.65944 9572 ft 301 kts 142°
2026-04-17 08:33 6.59000 124.67236 9262 ft 301 kts 142°
2026-04-17 08:33 6.57319 124.68513 8978 ft 300 kts 142°
2026-04-17 08:34 6.55648 124.69778 8693 ft 299 kts 142°
2026-04-17 08:34 6.53986 124.71040 8410 ft 299 kts 142°
2026-04-17 08:34 6.52317 124.72306 8128 ft 297 kts 142°
2026-04-17 08:34 6.50668 124.73555 7853 ft 296 kts 142°
2026-04-17 08:35 6.49024 124.74803 7575 ft 295 kts 142°
2026-04-17 08:35 6.47382 124.76050 7310 ft 294 kts 142°
2026-04-17 08:35 6.45739 124.77298 7035 ft 293 kts 142°
2026-04-17 08:35 6.44122 124.78524 6758 ft 293 kts 142°
2026-04-17 08:36 6.42497 124.79756 6475 ft 292 kts 142°
2026-04-17 08:36 6.40864 124.80995 6196 ft 292 kts 142°
2026-04-17 08:36 6.39240 124.82262 5961 ft 289 kts 139°
2026-04-17 08:36 6.37792 124.83620 5848 ft 281 kts 133°
2026-04-17 08:37 6.36464 124.85066 5622 ft 278 kts 131°
2026-04-17 08:37 6.35170 124.86513 5417 ft 276 kts 130°
2026-04-17 08:37 6.33908 124.87933 5231 ft 272 kts 130°
2026-04-17 08:37 6.32648 124.89348 5048 ft 269 kts 130°
2026-04-17 08:38 6.31402 124.90745 4878 ft 265 kts 130°
2026-04-17 08:38 6.30165 124.92129 4701 ft 261 kts 131°
2026-04-17 08:38 6.28952 124.93491 4531 ft 258 kts 129°
2026-04-17 08:38 6.28084 124.95027 4387 ft 251 kts 101°
2026-04-17 08:39 6.27965 124.96756 4519 ft 240 kts 92°
2026-04-17 08:39 6.27475 124.98318 4826 ft 242 kts 128°
2026-04-17 08:39 6.26123 124.99271 5056 ft 239 kts 166°
2026-04-17 08:39 6.24464 124.99320 5080 ft 238 kts 185°
2026-04-17 08:40 6.22826 124.99460 5058 ft 237 kts 157°
2026-04-17 08:40 6.21375 125.00273 5064 ft 238 kts 146°
2026-04-17 08:40 6.19965 125.01186 5063 ft 238 kts 146°
2026-04-17 08:40 6.18582 125.02090 5067 ft 238 kts 146°
2026-04-17 08:41 6.17171 125.03006 5064 ft 237 kts 146°
2026-04-17 08:41 6.15777 125.03905 5051 ft 238 kts 146°
2026-04-17 08:41 6.14372 125.04807 5051 ft 237 kts 147°
2026-04-17 08:41 6.12962 125.05711 5049 ft 237 kts 146°
2026-04-17 08:42 6.11569 125.06602 5041 ft 237 kts 146°
2026-04-17 08:42 6.10149 125.07510 5036 ft 237 kts 146°
2026-04-17 08:42 6.08750 125.08400 5044 ft 238 kts 149°
2026-04-17 08:42 6.07235 125.09109 5047 ft 238 kts 161°
2026-04-17 08:43 6.05607 125.09498 5024 ft 239 kts 171°
2026-04-17 08:43 6.03924 125.09734 4889 ft 239 kts 173°
2026-04-17 08:43 6.02269 125.09937 4707 ft 239 kts 173°
2026-04-17 08:43 6.00605 125.10141 4502 ft 239 kts 173°
2026-04-17 08:44 5.98937 125.10352 4277 ft 241 kts 173°
2026-04-17 08:44 5.97264 125.10566 4040 ft 242 kts 172°
2026-04-17 08:44 5.95552 125.10789 3808 ft 242 kts 172°
2026-04-17 08:44 5.93880 125.11007 3575 ft 241 kts 173°
2026-04-17 08:45 5.92216 125.11225 3402 ft 238 kts 173°
2026-04-17 08:45 5.90588 125.11439 3328 ft 229 kts 173°
2026-04-17 08:45 5.89081 125.11768 3304 ft 218 kts 152°
2026-04-17 08:45 5.87973 125.12721 3290 ft 206 kts 120°
2026-04-17 08:46 5.87719 125.14062 3206 ft 196 kts 74°
2026-04-17 08:46 5.88514 125.15095 3114 ft 184 kts 23°
2026-04-17 08:46 5.89714 125.15117 3039 ft 174 kts 329°
2026-04-17 08:46 5.90559 125.14256 3037 ft 173 kts 303°
2026-04-17 08:47 5.91213 125.13231 3026 ft 172 kts 302°
2026-04-17 08:47 5.91887 125.12225 3004 ft 172 kts 304°
2026-04-17 08:47 5.92649 125.11302 2921 ft 173 kts 327°
2026-04-17 08:47 5.93809 125.10933 2741 ft 175 kts 352°
2026-04-17 08:48 5.95023 125.10822 2538 ft 176 kts 357°
2026-04-17 08:48 5.96252 125.10762 2314 ft 177 kts 357°
2026-04-17 08:48 5.97493 125.10648 2062 ft 178 kts 354°
2026-04-17 08:48 5.98728 125.10489 1802 ft 174 kts 353°
2026-04-17 08:49 5.99929 125.10333 1528 ft 173 kts 354°
2026-04-17 08:49 6.01110 125.10195 1298 ft 167 kts 356°
2026-04-17 08:49 6.02280 125.10059 992 ft 168 kts 352°
2026-04-17 08:49 6.03418 125.09891 769 ft 164 kts 354°
2026-04-17 08:50 6.04554 125.09762 584 ft 157 kts 355°
2026-04-17 08:50 6.05603 125.09631 542 ft 140 kts 354°
2026-04-17 08:50 6.06630 125.09508 684 ft 162 kts 354°
2026-04-17 08:50 6.07625 125.09393 1684 ft 107 kts 357°
2026-04-17 08:51 6.08390 125.09303 1257 ft 167 kts 352°
2026-04-17 08:51 6.09581 125.09187 1679 ft 161 kts 358°
2026-04-17 08:51 6.10530 125.09140 2039 ft 154 kts 358°
2026-04-17 08:51 6.10790 125.09129 2140 ft 154 kts 359°
2026-04-17 08:52 6.11843 125.09095 2431 ft 162 kts 359°
2026-04-17 08:52 6.13028 125.09080 2698 ft 176 kts
2026-04-17 08:52 6.14184 125.09647 2967 ft 193 kts 48°
2026-04-17 08:52 6.14743 125.10914 3262 ft 211 kts 85°
2026-04-17 08:53 6.14418 125.12400 3579 ft 230 kts 121°
2026-04-17 08:53 6.13250 125.13541 3937 ft 239 kts 153°
2026-04-17 08:53 6.11646 125.13998 4046 ft 241 kts 173°
2026-04-17 08:53 6.09966 125.14148 4045 ft 241 kts 177°
2026-04-17 08:54 6.08258 125.14238 4047 ft 242 kts 178°
2026-04-17 08:54 6.06561 125.14315 4048 ft 242 kts 178°
2026-04-17 08:54 6.04873 125.14387 4050 ft 242 kts 178°
2026-04-17 08:54 6.03185 125.14457 4052 ft 242 kts 178°
2026-04-17 08:55 6.01492 125.14525 4054 ft 243 kts 178°
2026-04-17 08:55 5.99789 125.14592 4052 ft 241 kts 177°
2026-04-17 08:55 5.98097 125.14655 4056 ft 242 kts 178°
2026-04-17 08:55 5.96416 125.14716 4045 ft 242 kts 179°
2026-04-17 08:56 5.94721 125.14751 3969 ft 240 kts 178°
2026-04-17 08:56 5.93038 125.14806 4011 ft 242 kts 178°
2026-04-17 08:56 5.91335 125.14864 4031 ft 241 kts 178°
2026-04-17 08:56 5.89684 125.14923 4038 ft 241 kts 178°
2026-04-17 08:57 5.87975 125.14986 4035 ft 240 kts 178°
2026-04-17 08:57 5.86291 125.15053 4048 ft 240 kts 178°
2026-04-17 08:57 5.84614 125.15042 4038 ft 239 kts 193°
2026-04-17 08:57 5.83685 125.14663 4024 ft 238 kts 217°
2026-04-17 08:58 5.82749 125.13368 3836 ft 238 kts 258°
2026-04-17 08:58 5.82921 125.11777 3878 ft 232 kts 300°
2026-04-17 08:59 5.84099 125.10687 3988 ft 233 kts 339°
2026-04-17 08:59 5.85695 125.10589 4024 ft 233 kts 16°
2026-04-17 08:59 5.87240 125.11132 4050 ft 233 kts 20°
2026-04-17 08:59 5.88789 125.11638 4044 ft 233 kts
2026-04-17 09:00 5.90411 125.11600 4043 ft 233 kts 353°
2026-04-17 09:00 5.92035 125.11375 4033 ft 230 kts 352°
2026-04-17 09:00 5.93607 125.11159 3308 ft 222 kts 353°
2026-04-17 09:00 5.95134 125.10954 3143 ft 218 kts 353°
2026-04-17 09:01 5.96638 125.10760 2987 ft 214 kts 353°
2026-04-17 09:01 5.98103 125.10577 2818 ft 209 kts 353°
2026-04-17 09:01 5.99548 125.10393 2611 ft 205 kts 352°
2026-04-17 09:01 6.00964 125.10203 1376 ft 201 kts 352°
2026-04-17 09:02 6.01462 125.10142 1256 ft 140 kts 353°
2026-04-17 09:02 6.02482 125.10021 903 ft 152 kts 353°
2026-04-17 09:02 6.03556 125.09891 767 ft 157 kts 352°
2026-04-17 09:02 6.04640 125.09757 564 ft 155 kts 353°
2026-04-17 09:03 6.05672 125.09634 544 ft 140 kts 352°
2026-04-17 09:03 6.06495 125.09533 541 ft 79 kts 354°
2026-04-17 09:03 6.06830 125.09493 541 ft 26 kts 353°
2026-04-17 09:03 6.06906 125.09485 541 ft 3 kts 317°
2026-04-17 09:04 6.06896 125.09471 541 ft 4 kts 185°
2026-04-17 09:04 6.06839 125.09478 541 ft 11 kts 169°
2026-04-17 09:04 6.06753 125.09496 541 ft 13 kts 169°
2026-04-17 09:04 6.06639 125.09515 541 ft 18 kts 172°
2026-04-17 09:05 6.06508 125.09532 541 ft 19 kts 170°
2026-04-17 09:05 6.06368 125.09561 541 ft 20 kts 176°
2026-04-17 09:05 6.06222 125.09571 541 ft 24 kts 172°
2026-04-17 09:05 6.05990 125.09605 541 ft 37 kts 173°
2026-04-17 09:06 6.05829 125.09634 541 ft 7 kts 131°
2026-04-17 09:06 6.05824 125.09694 541 ft 14 kts 84°
2026-04-17 09:06 6.05840 125.09807 540 ft 17 kts 83°
2026-04-17 09:06 6.05811 125.09860 540 ft 8 kts 163°
2026-04-17 09:07 6.05780 125.09875 540 ft 4 kts 130°
2026-04-17 09:07 6.05772 125.09912 540 ft 6 kts 89°
2026-04-17 09:07 6.05776 125.09946 540 ft 5 kts 84°
2026-04-17 09:07 6.05776 125.09949 540 ft 0 kts 84°